Dewpoint
39 36 33 31 33 31 26 26 27 26 28 28 28 26 26 27 28 29 29 29 29 32 32 33 37 48 51 59 63 66 66 67 66 65 65 64 63 63 62 62 63 64 63 64
35 33 32 32 30 31 31 28 26 26 28 30 27 26 27 28 28 29 30 30 31 31 32 34 36 41 51 53 61 64 66 67 66 66 65 64 63 62 62 62 63 64 64 65
28 30 32 29 31 32 32 30 28 26 28 30 29 28 27 27 29 30 31 31 31 32 33 33 35 39 52 53 58 62 65 66 67 66 65 65 63 62 61 61 62 64 66 66
33 28 25 29 31 32 30 29 28 27 28 26 28 22 23 21 21 23 28 32 32 32 33 33 35 38 46 55 57 61 63 65 66 67 65 64 61 60 60 61 63 66 67 67
38 36 29 23 27 30 28 26 28 30 28 26 23 21 21 21 20 21 24 26 31 33 34 33 34 36 39 51 56 61 61 64 66 67 66 64 62 61 61 63 67 67 67 67
38 38 36 33 27 27 27 29 27 30 28 25 24 22 20 20 23 25 23 25 28 32 34 35 35 37 38 54 59 61 61 62 65 66 66 65 64 63 65 65 64 62 63 63
37 38 39 35 30 32 29 31 35 33 28 25 23 22 24 25 25 25 25 25 28 31 34 35 34 35 41 47 57 61 61 61 64 66 66 66 66 66 65 64 63 62 61 63
35 33 38 39 35 36 36 36 33 26 26 25 26 24 25 27 28 29 30 28 28 31 34 34 35 37 42 51 58 61 61 62 64 66 67 67 67 65 64 65 65 64 63 63
35 35 40 36 33 34 37 38 36 33 33 29 25 26 28 27 27 27 28 29 30 32 32 36 37 39 41 50 57 62 62 62 64 65 66 67 65 66 65 64 63 62 62 59
38 34 38 40 39 38 39 38 35 35 32 29 25 26 24 26 27 28 28 29 31 32 33 36 38 42 45 52 56 62 62 63 64 64 63 63 64 63 60 59 59 59 57 55
40 37 33 38 39 37 39 38 39 36 35 28 23 22 26 26 28 29 30 30 32 33 33 38 43 48 52 55 57 61 63 62 60 60 59 59 59 59 58 57 57 55 54 52
34 33 34 33 35 39 37 37 38 35 34 34 32 31 29 30 30 31 32 31 33 34 35 40 46 49 51 54 57 60 59 58 58 57 56 57 55 55 55 55 54 54 52 51
23 29 25 31 31 39 39 36 37 38 35 32 33 31 31 30 31 32 33 34 37 38 38 42 46 48 50 52 56 58 57 57 55 53 55 54 54 52 54 53 52 51 50 50
30 27 25 24 27 30 28 28 31 34 34 34 33 30 28 30 31 32 35 38 40 41 41 43 45 47 48 51 55 56 56 55 52 53 51 51 49 50 51 51 50 51 49 48
32 27 28 27 25 25 27 28 26 28 30 34 32 30 29 29 31 34 35 38 38 40 41 41 43 45 46 49 52 54 54 51 51 50 49 47 48 50 50 50 50 50 49 48
24 26 25 24 24 21 18 18 23 27 30 29 30 33 34 32 31 31 32 33 34 38 40 41 41 43 44 46 50 52 49 50 50 47 46 47 48 48 49 49 49 49 48 47
29 28 23 18 17 20 20 22 20 21 24 28 30 32 37 37 36 35 36 36 35 35 39 41 41 41 43 45 48 50 47 45 45 45 46 46 46 47 48 48 47 47 47 46
28 27 25 20 19 14 17 12 14 19 23 28 26 27 29 34 37 38 38 38 35 35 37 40 41 41 42 43 46 50 47 44 45 45 44 44 45 46 46 46 46 46 46 44
25 27 23 20 17 16 13 11 12 15 19 21 21 25 26 24 29 32 36 39 38 37 37 37 40 41 41 42 45 47 46 44 44 44 44 44 45 45 46 45 45 45 44 43
23 25 26 22 17 11 10 8 12 13 15 12 12 14 14 16 23 26 33 36 38 38 39 37 38 41 41 41 44 44 45 45 43 44 45 46 47 46 45 44 45 44 43 42
23 26 24 24 20 17 15 12 12 13 15 15 16 16 16 21 24 29 35 37 38 39 37 37 37 39 40 40 41 43 45 44 44 45 46 46 46 45 44 44 44 43 43 42
21 22 22 23 20 17 17 14 14 17 19 18 19 19 23 24 24 23 33 37 37 38 39 37 37 38 39 39 39 41 43 43 43 45 45 46 45 43 42 44 44 43 43 41
19 23 22 20 22 23 20 19 19 20 21 21 21 23 24 26 28 34 35 36 35 37 39 39 38 38 39 38 38 39 43 42 43 44 44 44 43 42 43 43 44 43 42 40
19 19 24 23 21 20 20 20 22 20 21 22 24 31 35 32 29 29 31 32 31 32 36 40 39 37 39 39 38 38 41 41 42 43 43 41 42 41 43 43 43 41 40 39
21 22 22 23 21 20 20 20 21 21 23 22 23 25 24 23 25 26 29 30 30 32 32 38 41 38 38 38 38 39 40 42 41 42 42 40 42 40 41 42 42 40 42 41
23 24 25 25 22 22 22 22 23 23 22 23 23 25 26 26 26 30 30 28 30 33 35 35 40 39 37 37 38 39 42 41 41 41 40 40 39 40 41 39 38 35 36 35
Lifted_Index
3 3 4 4 4 3 3 3 3 3 3 3 3 3 3 3 3 3 2 2 2 2 2 3 3 2 -0 -3 -5 -6 -7 -7 -6 -5 -5 -4 -4 -3 -3 -2 -2 -3 -3 -2
4 4 4 4 3 3 3 3 3 3 3 4 3 3 3 3 3 3 3 2 2 3 3 3 3 2 0 -2 -4 -6 -7 -7 -6 -6 -5 -4 -4 -3 -3 -2 -2 -3 -3 -3
4 4 4 4 3 3 3 3 3 3 3 3 3 3 3 3 3 3 3 3 3 3 3 3 4 3 1 -1 -3 -5 -6 -7 -7 -6 -5 -5 -4 -3 -3 -2 -3 -3 -4 -4
3 3 4 4 4 3 3 3 3 3 3 3 3 3 3 4 4 4 4 4 4 3 3 4 4 3 2 0 -2 -4 -5 -6 -7 -6 -6 -5 -4 -3 -3 -3 -3 -4 -4 -4
2 2 3 4 4 4 4 3 3 3 2 3 3 3 3 4 5 5 5 5 4 4 3 4 4 4 3 1 -1 -3 -4 -5 -6 -6 -6 -5 -5 -4 -4 -4 -4 -4 -4 -4
2 2 2 3 4 4 4 3 3 2 2 2 3 3 3 4 5 5 5 5 5 4 4 4 4 4 3 1 -1 -3 -4 -5 -5 -6 -6 -6 -5 -5 -5 -4 -4 -4 -4 -4
2 2 2 3 3 3 3 3 2 1 1 1 2 2 3 4 5 5 5 5 5 4 4 4 4 4 3 1 -1 -3 -4 -4 -5 -6 -6 -6 -6 -5 -5 -4 -3 -4 -4 -4
2 2 2 3 2 2 2 2 1 1 1 1 2 3 3 5 5 5 5 5 5 5 4 4 4 4 3 1 -2 -3 -4 -4 -5 -5 -6 -6 -6 -5 -5 -4 -4 -4 -4 -4
2 2 2 2 2 2 2 2 1 1 1 1 2 3 4 4 5 5 5 5 5 5 4 4 4 3 2 0 -2 -4 -4 -4 -5 -5 -5 -5 -5 -5 -5 -4 -4 -4 -3 -3
2 2 2 2 2 2 2 2 2 1 1 1 1 3 4 4 4 5 4 4 4 4 4 4 4 3 2 -0 -2 -3 -4 -4 -4 -4 -4 -5 -5 -5 -5 -5 -4 -3 -3 -2
1 1 1 1 1 1 2 2 1 1 1 1 1 2 3 4 4 4 4 4 4 5 4 4 4 3 2 0 -1 -2 -3 -3 -3 -4 -4 -5 -5 -5 -5 -4 -4 -3 -1 -0
2 1 1 1 1 1 1 1 1 1 1 1 1 2 3 4 4 4 4 4 4 5 5 4 4 3 3 1 -0 -1 -2 -3 -4 -5 -5 -5 -6 -5 -5 -4 -3 -2 0 2
4 3 1 1 1 1 1 1 1 1 1 1 2 2 4 4 4 4 4 4 4 4 4 4 4 4 4 2 1 -0 -1 -2 -4 -5 -5 -5 -5 -5 -4 -3 -2 1 4 6
5 4 3 2 3 3 2 2 2 1 1 1 2 3 4 4 4 4 4 4 4 4 4 4 4 4 4 3 2 1 0 -2 -3 -4 -4 -4 -4 -4 -3 -1 1 4 7 9
6 5 4 4 4 4 3 3 3 2 1 2 3 5 5 4 3 4 4 4 4 4 3 3 4 4 4 4 3 3 1 -1 -2 -3 -3 -3 -3 -2 -1 1 3 7 10 10
6 6 5 5 5 5 4 4 3 3 2 3 4 5 5 4 3 3 3 4 4 4 3 3 3 4 4 4 4 3 1 -1 -2 -3 -3 -2 -2 -1 0 3 6 9 11 11
5 5 5 5 5 5 4 5 5 4 4 4 4 6 6 5 4 4 4 4 4 4 3 3 4 4 4 4 4 4 2 -1 -2 -2 -2 -2 -1 0 3 6 9 10 11 12
4 4 4 4 4 4 5 6 6 6 5 5 5 6 7 6 5 5 5 4 4 4 3 4 4 4 5 5 5 4 3 0 -2 -2 -2 -1 0 2 5 8 10 11 12 12
4 4 4 3 3 3 5 7 7 6 6 6 6 7 8 8 7 6 5 4 4 4 3 3 4 4 5 5 5 5 3 1 -1 -2 -1 0 2 4 7 9 11 11 12 13
4 4 4 3 2 3 4 6 7 6 5 6 6 7 8 9 8 6 5 5 4 3 3 3 3 4 5 5 5 5 4 2 1 -0 0 2 4 6 8 10 10 12 13 13
4 4 4 3 3 3 4 5 6 5 5 6 6 7 8 8 7 6 5 5 4 4 3 3 3 4 4 5 5 5 5 4 2 1 2 4 7 9 10 10 11 12 13 14
4 3 3 3 3 3 4 4 5 5 6 6 6 6 7 7 6 6 5 5 4 4 3 3 3 3 4 5 5 5 5 4 3 2 4 6 9 11 11 10 12 13 14 14
3 3 3 3 3 3 3 4 4 4 5 5 5 5 6 6 5 5 5 5 4 4 3 3 2 3 4 4 5 5 5 5 4 3 5 8 10 11 10 11 12 13 14 14
2 2 2 2 3 3 3 3 2 3 3 4 4 4 4 5 5 5 5 5 5 5 4 3 2 3 3 3 4 5 6 6 5 5 7 10 11 10 11 12 13 14 14 14
1 1 1 2 2 2 2 1 1 1 2 3 3 3 4 5 5 5 5 5 5 5 4 3 2 3 3 3 3 6 7 7 6 6 8 10 11 10 11 13 14 14 14 14
1 1 1 1 1 1 1 1 1 1 1 2 3 3 4 5 6 6 5 5 5 5 4 3 2 2 3 3 3 6 7 7 6 7 9 10 11 10 11 13 15 15 15 14